Aeroporto :
LOGIN :

Iscrizione | Disclaimer

   EN    FR    IT 

 










Sommario :    VFR   VFR Marginale   IFR   IFR Intensivo   IFR Molto Intensivo
Visibilità : 
Base nubi : 
>= 8 km
>= 3000ft
5 / 8 km
1000 / 3000 ft
1500m / 5 km
500 / 1000 ft
800 / 1500m
200 / 500 ft
< 800m
< 200 ft
Simboli :   Temporali  Nebbia  Neve Forte  Precipitazioni Forti  Vento > 20 kt
SIGMETs :   Varie  Temporali  Ghiacco  Turbolenza  Onda orograficha  Ceneri Vulcaniche






- Altitudine del aeroporto : 125 ft
- Codice IATA : MGL


EDLN - Mönchengladbach

ULTIMO METAR :
  • 191650Z 05004KT CAVOK 24/09 Q1016

METARs OBSOLETI :
  • 191620Z 07004KT CAVOK 25/08 Q1015
  • 191550Z 05004KT 010V080 CAVOK 26/06 Q1016
  • 191520Z 11003KT 060V170 CAVOK 26/06 Q1016
  • 191450Z 12005KT 090V160 CAVOK 26/06 Q1016

TAF TAF EDLN
Valido dal 19 a 15 ore il 20 a 00 ore UTC


191400Z 1915/1924 12008KT CAVOK
BECMG 1915/1918 06004KT



MetMap, La meteo Aeronautica in un colpo d'occhio ! - Copyright ORBIFLY Dicembre 2007 - Disclaimer

ORBIFLY MET'MAP TEAM :

Programmazione e sviluppo : Alexandra Zaïnal
Concezione : Baudouin d'Aumeries
Aiuto per la programmazione : Marc-Olivier Méhu
Supporto tecnico e logistico : Manuel Goepfert
Aiuto per la traduzione : Arnaldo La Scala

Contatto : metmap@orbifly.com




FONTI E CREDITI :

   NOAA